{"data":{"norad_id":62383,"epoch":"2026-09-22T19:50:20.457888Z","epoch_age_seconds":110897,"freshness":"FRESH","line1":"1 62383U 24247G   26265.82662567  .00004994  00000+0  17288-3 0  9998","line2":"2 62383  44.9911 116.0374 0000258 162.1678 197.9215 15.31120631 97935","mean_motion":15.31120631,"eccentricity":2.58e-5,"inclination_deg":44.9911,"raan_deg":116.0374,"arg_perigee_deg":162.1678,"mean_anomaly_deg":197.9215,"bstar":0.00017288,"rev_number":9793,"period_min":94.048762118731,"perigee_km":472.29086304069,"apogee_km":472.6443542385,"semimajor_km":6850.6046086396,"source":"CELESTRAK","updated_at":"2026-09-23T09:00:21.392255Z"}}